Home   Weather   Falkensee   Past weeks

Flag for Germany Past Weather in Falkensee, Brandenburg, Germany — Yesterday and Last 2 Weeks

48 °F

Passing clouds.

Feels Like: 46 °F
Forecast: 40 / 52 °F
Wind: 6 mph from South

Location: Berlin-Tegel

Current Time: Oct 23, 2016 at 2:10:47 PM

Latest Report: Oct 23, 2016 at 1:50 PM

Visibility: N/A

Pressure: 30.01 "Hg

Humidity: 76%

Dew Point: 41 °F

Location of FalkenseeLocation

Past Weather in Falkensee — Graph


Falkensee Temperature Yesterday

Maximum temperature yesterday: 50 °F (at 1:20 PM)
Minimum temperature yesterday: 43 °F (at 3:50 AM)
Average temperature yesterday: 46 °F

High & Low Weather Summary for the Past Weeks

High54 °F (Oct 8, 1:50 PM)100% (Oct 9, 5:50 AM)30.30 "Hg (Oct 9, 5:50 AM)
Low39 °F (Oct 10, 12:50 AM)58% (Oct 14, 2:20 PM)29.86 "Hg (Oct 15, 4:50 AM)
Average47 °F88%30.09 "Hg
* Reported Oct 8 12:20 PM — Oct 23 12:50 PM, Falkensee, Weather by CustomWeather, © 2016

Note: Actual official high and low records may vary slightly from our data, if they occured in-between our weather recording intervals... More about our weather records


Falkensee Weather History for the Previous 24 Hours

Scroll right to see more
Time TempWeatherWind HumidityBarometerVisibility
12:50 PM
Sun, Oct 23
48 °FScattered clouds.8 mph76%30.04 "Hg6 mi
12:20 PM48 °FPartly sunny.7 mph82%30.04 "Hg5 mi
11:50 AM48 °FPartly sunny.7 mph82%30.04 "Hg5 mi
11:20 AM46 °FBroken clouds.6 mph82%30.04 "Hg5 mi
10:50 AM46 °FBroken clouds.5 mph87%30.04 "Hg4 mi
10:20 AM45 °FPartly sunny.6 mph93%30.01 "Hg4 mi
9:50 AM45 °FPartly sunny.5 mph93%30.01 "Hg4 mi
9:20 AM45 °FPartly sunny.3 mph93%30.01 "Hg4 mi
8:50 AM45 °FBroken clouds.2 mph93%30.01 "Hg4 mi
8:20 AM45 °FBroken clouds.1 mph93%30.01 "Hg4 mi
7:50 AM43 °FBroken clouds.No wind100%29.98 "Hg4 mi
7:20 AM45 °FPartly cloudy.1 mph93%29.98 "Hg5 mi
6:50 AM43 °FPartly cloudy.1 mph93%29.98 "Hg6 mi
6:20 AM43 °FPartly cloudy.No wind93%29.98 "HgN/A
5:50 AM43 °FPassing clouds.1 mph93%29.98 "HgN/A
5:20 AM43 °FPassing clouds.No wind93%29.98 "HgN/A
4:50 AM43 °FPassing clouds.1 mph93%29.98 "HgN/A
4:20 AM43 °FPassing clouds.1 mph93%29.98 "HgN/A
3:50 AM45 °FPartly cloudy.2 mph93%29.98 "HgN/A
3:20 AM43 °FPartly cloudy.3 mph93%29.98 "HgN/A
2:50 AM45 °FPartly cloudy.2 mph93%29.98 "HgN/A
2:20 AM45 °FPartly cloudy.1 mph93%29.98 "HgN/A
1:50 AM45 °FPartly cloudy.1 mph93%29.98 "HgN/A
1:20 AM45 °FPassing clouds.1 mph93%29.98 "HgN/A
12:50 AM45 °FPassing clouds.1 mph93%29.98 "HgN/A
12:20 AM45 °FQuite cool.1 mph93%29.98 "HgN/A
11:50 PM
Sat, Oct 22
45 °FPassing clouds.1 mph87%29.98 "HgN/A
11:20 PM46 °FPassing clouds.3 mph87%29.98 "HgN/A
10:50 PM45 °FPartly cloudy.2 mph93%29.98 "HgN/A
10:20 PM45 °FPassing clouds.2 mph93%29.98 "HgN/A
9:50 PM46 °FPassing clouds.2 mph87%29.98 "HgN/A
9:20 PM46 °FPassing clouds.1 mph82%29.98 "HgN/A
8:50 PM46 °FPassing clouds.1 mph82%29.98 "HgN/A
8:20 PM46 °FPassing clouds.2 mph82%29.95 "HgN/A
7:50 PM46 °FPassing clouds.2 mph82%29.95 "HgN/A
7:20 PM46 °FPassing clouds.3 mph82%29.95 "HgN/A
6:50 PM46 °FPassing clouds.5 mph76%29.95 "HgN/A
6:20 PM46 °FPartly cloudy.5 mph82%29.95 "HgN/A
5:50 PM48 °FBroken clouds.6 mph76%29.92 "HgN/A
5:20 PM48 °FBroken clouds.5 mph76%29.92 "HgN/A
4:50 PM48 °FBroken clouds.5 mph76%29.92 "HgN/A
4:20 PM48 °FBroken clouds.3 mph71%29.92 "HgN/A
3:50 PM48 °FPartly sunny.5 mph71%29.92 "HgN/A
3:20 PM50 °FPartly sunny.3 mph71%29.92 "HgN/A
2:50 PM50 °FPartly sunny.2 mph67%29.92 "HgN/A
2:20 PM48 °FPartly sunny.6 mph71%29.92 "HgN/A
Weather by CustomWeather, © 2016

See weather overviewHow to use our weather pages